Simultaneous Nadir Overpasses (SNOs) Predictions

Prediction of SNOs between AURA and NPP Satellite Orbit:

Table of predicted SNOs for the next 14.0 days since TLE Epoch: 12/26/2020
Index Date (AURA) Time (AURA) Lat,Lon (AURA) SZA (AURA ) Date (NPP) Time (NPP) Lat,Lon (NPP) SZA (NPP ) Distance(km) Time Diff (sec)
1 12/26/2020 19:08:32 -79.37, -31.21 64.46 12/26/2020 19:07:20 -79.37, -31.25 64.40 0.88 72
2 12/26/2020 19:57:49 79.71, 138.78 115.08 12/26/2020 19:57:54 79.71, 138.90 115.05 2.53 5
3 12/29/2020 11:24:57 -79.52, 85.69 64.75 12/29/2020 11:24:11 -79.53, 85.80 64.73 2.58 46
4 12/29/2020 12:14:17 79.74,-105.11 114.95 12/29/2020 12:14:49 79.73,-105.13 114.93 0.47 32
5 01/01/2021 03:41:24 -79.59,-157.96 64.97 01/01/2021 03:41:05 -79.59,-157.94 64.96 0.42 19
6 01/01/2021 04:30:45 79.76, 10.97 114.78 01/01/2021 04:31:44 79.76, 10.84 114.76 2.57 59
7 01/03/2021 19:08:28 79.48, 149.55 114.99 01/03/2021 19:07:18 79.49, 149.69 115.02 3.02 70
8 01/03/2021 19:57:51 -79.65, -41.65 65.25 01/03/2021 19:57:59 -79.64, -41.70 65.25 0.94 8
9 01/06/2021 11:24:54 79.54, -94.20 114.67 01/06/2021 11:24:11 79.54, -94.09 114.68 2.33 43



Historial Predications of SNOs between AURA and NPP
